Time,TemperatureF,DewpointF,PressureIn,WindDirection,WindDirectionDegrees,WindSpeedMPH,WindSpeedGustMPH,Humidity,HourlyPrecipIn,Conditions,Clouds,dailyrainin,SoftwareType,DateUTC
2013-01-27 00:03:00,8.0,-5.0,30.15,WNW,290,5.0,15.0,55,0.00,,,0.00,,2013-01-27 05:03:00,
2013-01-27 00:12:00,8.0,-5.0,30.15,WNW,290,5.0,15.0,55,0.00,,,0.00,,2013-01-27 05:12:00,
2013-01-27 00:22:00,9.0,-3.0,30.15,WNW,295,5.0,14.0,57,0.00,,,0.00,,2013-01-27 05:22:00,
2013-01-27 00:32:00,9.0,-3.0,30.15,WNW,298,5.0,17.0,57,0.00,,,0.00,,2013-01-27 05:32:00,
2013-01-27 00:42:00,9.0,-3.0,30.15,WNW,298,5.0,17.0,57,0.00,,,0.00,,2013-01-27 05:42:00,
2013-01-27 00:52:00,9.0,-3.0,30.15,NNW,343,5.0,15.0,58,0.00,,,0.00,,2013-01-27 05:52:00,
2013-01-27 01:02:00,9.0,-2.0,30.15,NW,312,8.0,18.0,59,0.00,,,0.00,,2013-01-27 06:02:00,
2013-01-27 01:11:00,9.0,-2.0,30.15,NW,312,8.0,18.0,59,0.00,,,0.00,,2013-01-27 06:11:00,
2013-01-27 01:21:00,9.0,-2.0,30.15,WNW,286,8.0,24.0,59,0.00,,,0.00,,2013-01-27 06:21:00,
2013-01-27 01:32:00,8.0,-3.0,30.16,WNW,297,6.0,17.0,60,0.00,,,0.00,,2013-01-27 06:32:00,
2013-01-27 01:42:00,8.0,-3.0,30.16,WNW,297,6.0,17.0,60,0.00,,,0.00,,2013-01-27 06:42:00,
2013-01-27 01:52:00,8.0,-3.0,30.16,NW,322,7.0,13.0,60,0.00,,,0.00,,2013-01-27 06:52:00,
2013-01-27 02:01:00,8.0,-3.0,30.16,NW,320,5.0,13.0,61,0.00,,,0.00,,2013-01-27 07:01:00,
2013-01-27 02:14:00,8.0,-3.0,30.16,NW,320,5.0,13.0,61,0.00,,,0.00,,2013-01-27 07:14:00,
2013-01-27 02:21:00,8.0,-3.0,30.17,NW,322,7.0,16.0,61,0.00,,,0.00,,2013-01-27 07:21:00,
2013-01-27 02:32:00,8.0,-2.0,30.17,North,10,6.0,14.0,62,0.00,,,0.00,,2013-01-27 07:32:00,
2013-01-27 02:42:00,8.0,-2.0,30.17,North,10,6.0,14.0,62,0.00,,,0.00,,2013-01-27 07:42:00,
2013-01-27 02:52:00,8.0,-2.0,30.17,NW,316,6.0,20.0,62,0.00,,,0.00,,2013-01-27 07:52:00,
2013-01-27 03:02:00,8.0,-2.0,30.17,WNW,301,7.0,17.0,62,0.00,,,0.00,,2013-01-27 08:02:00,
2013-01-27 03:12:00,8.0,-2.0,30.17,WNW,301,7.0,17.0,62,0.00,,,0.00,,2013-01-27 08:12:00,
2013-01-27 03:22:00,8.0,-2.0,30.18,WNW,289,6.0,13.0,64,0.00,,,0.00,,2013-01-27 08:22:00,
2013-01-27 03:32:00,8.0,-2.0,30.18,NNW,328,8.0,19.0,64,0.00,,,0.00,,2013-01-27 08:32:00,
2013-01-27 03:42:00,8.0,-2.0,30.18,NNW,328,8.0,19.0,64,0.00,,,0.00,,2013-01-27 08:42:00,
2013-01-27 03:52:00,8.0,-2.0,30.18,NNW,328,8.0,19.0,64,0.00,,,0.00,,2013-01-27 08:52:00,
2013-01-27 04:03:00,7.0,-3.0,30.19,West,280,6.0,16.0,64,0.00,,,0.00,,2013-01-27 09:03:00,
2013-01-27 04:11:00,7.0,-3.0,30.19,West,280,6.0,16.0,64,0.00,,,0.00,,2013-01-27 09:11:00,
2013-01-27 04:22:00,7.0,-3.0,30.19,NNW,329,7.0,16.0,64,0.00,,,0.00,,2013-01-27 09:22:00,
2013-01-27 04:32:00,7.0,-3.0,30.20,NW,325,5.0,14.0,64,0.00,,,0.00,,2013-01-27 09:32:00,
2013-01-27 04:42:00,7.0,-3.0,30.20,NW,325,5.0,14.0,64,0.00,,,0.00,,2013-01-27 09:42:00,
2013-01-27 04:51:00,7.0,-3.0,30.21,NW,307,6.0,17.0,64,0.00,,,0.00,,2013-01-27 09:51:00,
2013-01-27 05:01:00,7.0,-2.0,30.21,WNW,301,7.0,18.0,65,0.00,,,0.00,,2013-01-27 10:01:00,
2013-01-27 05:11:00,7.0,-3.0,30.22,NNW,330,7.0,19.0,63,0.00,,,0.00,,2013-01-27 10:11:00,
2013-01-27 05:21:00,7.0,-3.0,30.22,NNW,330,7.0,19.0,63,0.00,,,0.00,,2013-01-27 10:21:00,
2013-01-27 05:32:00,6.0,-4.0,30.22,West,277,9.0,24.0,62,0.00,,,0.00,,2013-01-27 10:32:00,
2013-01-27 05:42:00,6.0,-4.0,30.22,West,277,9.0,24.0,62,0.00,,,0.00,,2013-01-27 10:42:00,
2013-01-27 05:51:00,6.0,-4.0,30.23,WNW,301,8.0,21.0,62,0.00,,,0.00,,2013-01-27 10:51:00,
2013-01-27 06:01:00,6.0,-4.0,30.25,North,8,9.0,22.0,62,0.00,,,0.00,,2013-01-27 11:01:00,
2013-01-27 06:11:00,6.0,-4.0,30.25,North,8,9.0,22.0,62,0.00,,,0.00,,2013-01-27 11:11:00,
2013-01-27 06:22:00,6.0,-4.0,30.26,NW,325,8.0,16.0,63,0.00,,,0.00,,2013-01-27 11:22:00,
2013-01-27 06:32:00,6.0,-4.0,30.26,NNW,348,9.0,20.0,63,0.00,,,0.00,,2013-01-27 11:32:00,
2013-01-27 06:42:00,6.0,-4.0,30.26,NNW,348,9.0,20.0,63,0.00,,,0.00,,2013-01-27 11:42:00,
2013-01-27 06:52:00,6.0,-4.0,30.27,NW,323,13.0,26.0,62,0.00,,,0.00,,2013-01-27 11:52:00,
2013-01-27 07:02:00,5.0,-5.0,30.28,West,278,10.0,22.0,63,0.00,,,0.00,,2013-01-27 12:02:00,
2013-01-27 07:12:00,5.0,-5.0,30.28,West,278,10.0,22.0,63,0.00,,,0.00,,2013-01-27 12:12:00,
2013-01-27 07:22:00,5.0,-5.0,30.28,WNW,303,11.0,25.0,63,0.00,,,0.00,,2013-01-27 12:22:00,
2013-01-27 07:32:00,5.0,-5.0,30.29,NNW,330,11.0,20.0,63,0.00,,,0.00,,2013-01-27 12:32:00,
2013-01-27 07:42:00,5.0,-5.0,30.29,NNW,330,11.0,20.0,63,0.00,,,0.00,,2013-01-27 12:42:00,
2013-01-27 07:52:00,5.0,-5.0,30.29,NW,308,16.0,29.0,63,0.00,,,0.00,,2013-01-27 12:52:00,
2013-01-27 08:02:00,5.0,-5.0,30.30,NNW,338,13.0,33.0,62,0.00,,,0.00,,2013-01-27 13:02:00,
2013-01-27 08:11:00,5.0,-5.0,30.30,NNW,338,13.0,33.0,62,0.00,,,0.00,,2013-01-27 13:11:00,
2013-01-27 08:22:00,6.0,-5.0,30.31,WNW,296,15.0,36.0,60,0.00,,,0.00,,2013-01-27 13:22:00,
2013-01-27 08:32:00,6.0,-4.0,30.30,NW,322,18.0,35.0,62,0.01,,,0.01,,2013-01-27 13:32:00,
2013-01-27 08:42:00,6.0,-4.0,30.30,NW,322,18.0,35.0,62,0.01,,,0.01,,2013-01-27 13:42:00,
2013-01-27 08:52:00,6.0,-4.0,30.32,WNW,285,13.0,27.0,62,0.01,,,0.01,,2013-01-27 13:52:00,
2013-01-27 09:02:00,7.0,-3.0,30.32,NW,312,11.0,31.0,63,0.01,,,0.01,,2013-01-27 14:02:00,
2013-01-27 09:12:00,7.0,-3.0,30.32,NW,312,11.0,31.0,63,0.01,,,0.01,,2013-01-27 14:12:00,
2013-01-27 09:22:00,7.0,-3.0,30.33,NW,324,14.0,25.0,62,0.01,,,0.01,,2013-01-27 14:22:00,
2013-01-27 09:33:00,8.0,-2.0,30.34,West,274,12.0,26.0,62,0.00,,,0.01,,2013-01-27 14:33:00,
2013-01-27 09:43:00,8.0,-2.0,30.34,West,274,12.0,26.0,62,0.00,,,0.01,,2013-01-27 14:43:00,
2013-01-27 09:52:00,9.0,-1.0,30.34,NNE,18,14.0,31.0,62,0.00,,,0.01,,2013-01-27 14:52:00,
2013-01-27 10:02:00,9.0,-1.0,30.35,North,4,12.0,27.0,62,0.00,,,0.01,,2013-01-27 15:02:00,
2013-01-27 10:12:00,9.0,-1.0,30.35,North,4,12.0,27.0,62,0.00,,,0.01,,2013-01-27 15:12:00,
2013-01-27 10:22:00,10.0,0.0,30.35,NNW,343,8.0,29.0,62,0.00,,,0.01,,2013-01-27 15:22:00,
2013-01-27 10:32:00,10.0,-1.0,30.36,WNW,291,16.0,25.0,61,0.00,,,0.01,,2013-01-27 15:32:00,
2013-01-27 10:42:00,10.0,-1.0,30.36,WNW,291,16.0,25.0,61,0.00,,,0.01,,2013-01-27 15:42:00,
2013-01-27 10:53:00,11.0,0.0,30.36,NW,316,14.0,33.0,60,0.00,,,0.01,,2013-01-27 15:53:00,
2013-01-27 11:02:00,11.0,0.0,30.37,NW,318,10.0,29.0,61,0.00,,,0.01,,2013-01-27 16:02:00,
2013-01-27 11:12:00,11.0,0.0,30.37,NW,318,10.0,29.0,61,0.00,,,0.01,,2013-01-27 16:12:00,
2013-01-27 11:22:00,12.0,1.0,30.37,NNW,334,9.0,20.0,60,0.00,,,0.01,,2013-01-27 16:22:00,
2013-01-27 11:32:00,13.0,1.0,30.36,North,354,14.0,30.0,58,0.00,,,0.01,,2013-01-27 16:32:00,
2013-01-27 11:42:00,13.0,1.0,30.36,North,354,14.0,30.0,58,0.00,,,0.01,,2013-01-27 16:42:00,
2013-01-27 11:53:00,13.0,1.0,30.35,NNW,337,13.0,29.0,58,0.00,,,0.01,,2013-01-27 16:53:00,
2013-01-27 12:02:00,13.0,1.0,30.35,North,9,11.0,24.0,57,0.00,,,0.01,,2013-01-27 17:02:00,
2013-01-27 12:12:00,13.0,1.0,30.35,North,9,11.0,24.0,57,0.00,,,0.01,,2013-01-27 17:12:00,
2013-01-27 12:22:00,14.0,2.0,30.34,NW,314,9.0,25.0,57,0.00,,,0.01,,2013-01-27 17:22:00,
2013-01-27 12:32:00,15.0,1.0,30.33,NW,312,10.0,21.0,54,0.00,,,0.01,,2013-01-27 17:32:00,
2013-01-27 12:42:00,15.0,1.0,30.33,NW,312,10.0,21.0,54,0.00,,,0.01,,2013-01-27 17:42:00,
2013-01-27 12:53:00,15.0,1.0,30.33,NNW,343,9.0,26.0,54,0.00,,,0.01,,2013-01-27 17:53:00,
2013-01-27 13:02:00,16.0,2.0,30.32,WNW,297,9.0,27.0,54,0.00,,,0.01,,2013-01-27 18:02:00,
2013-01-27 13:12:00,16.0,2.0,30.32,WNW,297,9.0,27.0,54,0.00,,,0.01,,2013-01-27 18:12:00,
2013-01-27 13:23:00,17.0,3.0,30.32,NW,312,7.0,19.0,53,0.00,,,0.01,,2013-01-27 18:23:00,
2013-01-27 13:32:00,17.0,2.0,30.32,NNW,337,8.0,18.0,52,0.00,,,0.01,,2013-01-27 18:32:00,
2013-01-27 13:42:00,17.0,2.0,30.32,NNW,337,8.0,18.0,52,0.00,,,0.01,,2013-01-27 18:42:00,
2013-01-27 13:53:00,17.0,2.0,30.32,NNW,337,8.0,18.0,52,0.00,,,0.01,,2013-01-27 18:53:00,
2013-01-27 14:02:00,18.0,2.0,30.33,NW,320,8.0,18.0,49,0.00,,,0.01,,2013-01-27 19:02:00,
2013-01-27 14:12:00,18.0,2.0,30.33,NW,320,8.0,18.0,49,0.00,,,0.01,,2013-01-27 19:12:00,
2013-01-27 14:22:00,18.0,2.0,30.33,SW,228,11.0,20.0,48,0.00,,,0.01,,2013-01-27 19:22:00,
2013-01-27 14:33:00,19.0,2.0,30.33,NNW,327,9.0,27.0,47,0.00,,,0.01,,2013-01-27 19:33:00,
2013-01-27 14:42:00,19.0,2.0,30.33,NNW,327,9.0,27.0,47,0.00,,,0.01,,2013-01-27 19:42:00,
2013-01-27 14:52:00,19.0,2.0,30.35,North,354,8.0,23.0,46,0.00,,,0.01,,2013-01-27 19:52:00,
2013-01-27 15:02:00,19.0,2.0,30.35,NW,307,14.0,26.0,46,0.00,,,0.01,,2013-01-27 20:02:00,
2013-01-27 15:12:00,19.0,2.0,30.35,NW,307,14.0,26.0,46,0.00,,,0.01,,2013-01-27 20:12:00,
2013-01-27 15:22:00,19.0,2.0,30.34,WNW,289,10.0,25.0,47,0.00,,,0.01,,2013-01-27 20:22:00,
2013-01-27 15:33:00,19.0,2.0,30.34,NW,305,13.0,28.0,46,0.00,,,0.01,,2013-01-27 20:33:00,
2013-01-27 15:42:00,19.0,2.0,30.34,NW,305,13.0,28.0,46,0.00,,,0.01,,2013-01-27 20:42:00,
2013-01-27 15:52:00,19.0,2.0,30.34,NW,311,9.0,22.0,46,0.00,,,0.01,,2013-01-27 20:52:00,
2013-01-27 16:02:00,19.0,2.0,30.35,WNW,291,9.0,21.0,46,0.00,,,0.01,,2013-01-27 21:02:00,
2013-01-27 16:12:00,19.0,2.0,30.35,WNW,291,9.0,21.0,46,0.00,,,0.01,,2013-01-27 21:12:00,
2013-01-27 16:22:00,18.0,1.0,30.36,West,259,11.0,25.0,47,0.00,,,0.01,,2013-01-27 21:22:00,
2013-01-27 16:33:00,18.0,2.0,30.37,WNW,298,8.0,21.0,48,0.00,,,0.01,,2013-01-27 21:33:00,
2013-01-27 16:42:00,18.0,2.0,30.37,WNW,298,8.0,21.0,48,0.00,,,0.01,,2013-01-27 21:42:00,
2013-01-27 16:52:00,17.0,1.0,30.37,WNW,303,7.0,16.0,49,0.00,,,0.01,,2013-01-27 21:52:00,
2013-01-27 17:02:00,17.0,2.0,30.38,NW,315,8.0,15.0,50,0.00,,,0.01,,2013-01-27 22:02:00,
2013-01-27 17:12:00,17.0,2.0,30.38,NW,315,8.0,15.0,50,0.00,,,0.01,,2013-01-27 22:12:00,
2013-01-27 17:22:00,17.0,2.0,30.39,West,275,5.0,15.0,50,0.00,,,0.01,,2013-01-27 22:22:00,
2013-01-27 17:32:00,16.0,1.0,30.40,NW,308,6.0,13.0,51,0.00,,,0.01,,2013-01-27 22:32:00,
2013-01-27 17:42:00,16.0,1.0,30.40,NW,308,6.0,13.0,51,0.00,,,0.01,,2013-01-27 22:42:00,
2013-01-27 17:52:00,16.0,2.0,30.40,NW,325,7.0,16.0,53,0.00,,,0.01,,2013-01-27 22:52:00,
2013-01-27 18:02:00,15.0,2.0,30.41,NNW,328,5.0,12.0,55,0.00,,,0.01,,2013-01-27 23:02:00,
2013-01-27 18:12:00,15.0,2.0,30.41,NNW,328,5.0,12.0,55,0.00,,,0.01,,2013-01-27 23:12:00,
2013-01-27 18:22:00,15.0,3.0,30.42,NW,326,5.0,15.0,57,0.00,,,0.01,,2013-01-27 23:22:00,
2013-01-27 18:32:00,14.0,2.0,30.42,NW,324,6.0,17.0,58,0.00,,,0.01,,2013-01-27 23:32:00,
2013-01-27 18:42:00,14.0,2.0,30.42,NW,324,6.0,17.0,58,0.00,,,0.01,,2013-01-27 23:42:00,
2013-01-27 18:53:00,14.0,2.0,30.43,NE,41,4.0,17.0,57,0.00,,,0.01,,2013-01-27 23:53:00,
2013-01-27 19:02:00,14.0,2.0,30.44,West,263,4.0,10.0,58,0.00,,,0.01,,2013-01-28 00:02:00,
2013-01-27 19:12:00,14.0,2.0,30.44,West,263,4.0,10.0,58,0.00,,,0.01,,2013-01-28 00:12:00,
2013-01-27 19:22:00,13.0,1.0,30.44,WNW,285,0.0,4.0,58,0.00,,,0.01,,2013-01-28 00:22:00,
2013-01-27 19:32:00,13.0,1.0,30.45,West,266,5.0,13.0,59,0.00,,,0.01,,2013-01-28 00:32:00,
2013-01-27 19:42:00,13.0,1.0,30.45,West,266,5.0,13.0,59,0.00,,,0.01,,2013-01-28 00:42:00,
2013-01-27 19:52:00,13.0,2.0,30.45,West,267,3.0,8.0,60,0.00,,,0.01,,2013-01-28 00:52:00,
2013-01-27 20:02:00,13.0,2.0,30.45,NNW,330,6.0,15.0,61,0.00,,,0.01,,2013-01-28 01:02:00,
2013-01-27 20:11:00,13.0,2.0,30.45,NNW,330,6.0,15.0,61,0.00,,,0.01,,2013-01-28 01:11:00,
2013-01-27 20:22:00,12.0,2.0,30.45,NW,313,6.0,17.0,62,0.00,,,0.01,,2013-01-28 01:22:00,
2013-01-27 20:33:00,12.0,2.0,30.45,WNW,286,5.0,13.0,63,0.00,,,0.01,,2013-01-28 01:33:00,
2013-01-27 20:42:00,12.0,2.0,30.45,WNW,286,5.0,13.0,63,0.00,,,0.01,,2013-01-28 01:42:00,
2013-01-27 20:52:00,12.0,2.0,30.46,NW,310,2.0,8.0,63,0.00,,,0.01,,2013-01-28 01:52:00,
2013-01-27 21:02:00,12.0,2.0,30.46,West,272,3.0,8.0,63,0.00,,,0.01,,2013-01-28 02:02:00,
2013-01-27 21:11:00,12.0,2.0,30.46,West,272,3.0,8.0,63,0.00,,,0.01,,2013-01-28 02:11:00,
2013-01-27 21:22:00,12.0,2.0,30.46,NW,304,3.0,12.0,63,0.00,,,0.01,,2013-01-28 02:22:00,
2013-01-27 21:32:00,11.0,1.0,30.46,NNW,330,3.0,12.0,63,0.00,,,0.01,,2013-01-28 02:32:00,
2013-01-27 21:42:00,11.0,1.0,30.46,NNW,330,3.0,12.0,63,0.00,,,0.01,,2013-01-28 02:42:00,
2013-01-27 21:53:00,11.0,1.0,30.46,West,272,5.0,12.0,63,0.00,,,0.01,,2013-01-28 02:53:00,
2013-01-27 22:02:00,10.0,0.0,30.46,WNW,295,4.0,13.0,63,0.00,,,0.01,,2013-01-28 03:02:00,
2013-01-27 22:12:00,10.0,0.0,30.46,WNW,295,4.0,13.0,63,0.00,,,0.01,,2013-01-28 03:12:00,
2013-01-27 22:22:00,10.0,0.0,30.45,NNE,15,4.0,9.0,63,0.00,,,0.01,,2013-01-28 03:22:00,
2013-01-27 22:32:00,10.0,0.0,30.45,WNW,302,7.0,13.0,64,0.00,,,0.01,,2013-01-28 03:32:00,
2013-01-27 22:42:00,10.0,0.0,30.45,WNW,302,7.0,13.0,64,0.00,,,0.01,,2013-01-28 03:42:00,
2013-01-27 22:53:00,9.0,-1.0,30.45,WNW,298,6.0,13.0,64,0.00,,,0.01,,2013-01-28 03:53:00,
2013-01-27 23:02:00,9.0,-1.0,30.45,West,268,6.0,13.0,64,0.00,,,0.01,,2013-01-28 04:02:00,
2013-01-27 23:12:00,9.0,-1.0,30.45,West,268,6.0,13.0,64,0.00,,,0.01,,2013-01-28 04:12:00,
2013-01-27 23:22:00,9.0,-1.0,30.45,West,268,6.0,13.0,64,0.00,,,0.01,,2013-01-28 04:22:00,
2013-01-27 23:32:00,9.0,-1.0,30.45,West,268,6.0,13.0,64,0.00,,,0.01,,2013-01-28 04:32:00,
2013-01-27 23:42:00,9.0,-1.0,30.45,West,268,6.0,13.0,64,0.00,,,0.01,,2013-01-28 04:42:00,
2013-01-27 23:52:00,8.0,-1.0,30.45,NW,318,4.0,10.0,67,0.00,,,0.01,,2013-01-28 04:52:00,